Regional Weather Roundup
Issued by NWS

Home | Current Version | Previous Version | Text Only | Print | Product List | Glossary Off
Versions: 1 2 3 4 5 6 7 8 9 10 11 12 13 14 15 16 17 18 19 20 21 22 23 24 25 26 27 28 29 30 31 32 33 34 35 36 37 38 39 40 41 42 43 44 45 46 47 48 49 50

000
ASUS43 KIND 210609
RWRIN

WEATHER ROUNDUP FOR INDIANA
NATIONAL WEATHER SERVICE INDIANAPOLIS IN
200 AM EDT TUE APR 21 2015

NOTE: "FAIR" INDICATES FEW OR NO CLOUDS BELOW 12,000 FEET WITH NO
SIGNIFICANT WEATHER AND/OR OBSTRUCTIONS TO VISIBILITY.

* - STATION DOES NOT REPORT WEATHER SUCH AS PRECIPITATION OR FOG.

+ - STATION NOT QUALITY CONTROLLED BY THE NATIONAL WEATHER SERVICE.
    USE DATA WITH CAUTION...ESPECIALLY DEWPOINT AND RELATIVE
    HUMIDITY OBSERVATIONS.

INZ001>003-010>013-019-020-210700-
NORTHWEST INDIANA

CITY           SKY/WX    TMP DP  RH WIND       PRES   REMARKS
GARY /AIRPORT/ CLOUDY    46  29  53 SW10G16   29.65S
KNOX *+        CLOUDY    41  27  56 SW14      29.66S
LA PORTE +     CLOUDY    43  37  77 SW12      29.65S
6HR MIN TEMP:  43; 6HR MAX TEMP:  48;

MICHIGAN CITY+ CLOUDY    43  32  65 SW9       29.64S
MONTICELLO +   FAIR      41  35  79 SW8       29.69S
6HR MIN TEMP:  41; 6HR MAX TEMP:  46;

RENSSELAER +   FAIR      39  37  93 W3        29.69S
VALPARAISO     CLOUDY    42  34  73 SW13      29.66S
6HR MIN TEMP:  41; 6HR MAX TEMP:  46; 6HR PCP: TRACE;


$$

LMZ046-743>745-210700-
SOUTHERN LAKE MICHIGAN

STATION/POSITION TIME  TEMP    WIND        PRES    WAVE
                       AIR SEA DIR/SP/G            HT
                 (UTC) (F)     (DEG/KT/KT) (MB)    (FT)
BURNS HARBOR     0600   45     230/ 13/ 18 1004.7S
MICHIGAN CITY    0600   44     210/ 23/ 28   N/A
5NW MICH CITY    0600   45 45  250/ 17/ 21   N/A     4

$$

INZ004-005-014>016-021>024-210700-
NORTH CENTRAL INDIANA

CITY           SKY/WX    TMP DP  RH WIND       PRES   REMARKS
GOSHEN         CLOUDY    43  36  76 SW14      29.64S
6HR MIN TEMP:  41; 6HR MAX TEMP:  48; 6HR PCP: TRACE;

LOGANSPORT +   FAIR      39  36  87 SW9       29.70F
PERU/GRISSOM   FAIR      42  36  79 SW10      29.69F
6HR MIN TEMP:  41; 6HR MAX TEMP:  47; 6HR PCP: TRACE;

ROCHESTER +    FAIR      45  37  76 SW10      29.68S
SOUTH BEND     CLOUDY    44  34  67 SW13      29.64R
6HR MIN TEMP:  43; 6HR MAX TEMP:  48;

WARSAW +       CLOUDY    41  34  75 SW9G17    29.66S

$$

INZ006>009-017-018-025>027-210700-
NORTHEAST INDIANA

CITY           SKY/WX    TMP DP  RH WIND       PRES   REMARKS
ANGOLA *+      PTCLDY    43  34  70 W8        29.63S
AUBURN +       LGT RAIN  43  34  70 SW9G17    29.67R
FORT WAYNE     MOCLDY    43  36  76 SW13      29.68S
6HR MIN TEMP:  43; 6HR MAX TEMP:  48; 6HR PCP: TRACE;

HUNTINGTON +   CLOUDY    42  32  67 SW13      29.69S
6HR MIN TEMP:  42; 6HR MAX TEMP:  47;


$$

INZ028-029-035-036-043>045-051>053-210700-
WEST CENTRAL INDIANA

CITY           SKY/WX    TMP DP  RH WIND       PRES   REMARKS
CRAWFORDSVL +  FAIR      41  31  68 SW10      29.74F
6HR MIN TEMP:  41; 6HR MAX TEMP:  46;

GREENCASTLE +  FAIR      43  32  65 SW3       29.78S
LAFAYETTE      FAIR      42  35  76 SW7       29.71F
6HR MIN TEMP:  41; 6HR MAX TEMP:  46; 6HR PCP: TRACE;

TERRE HAUTE    FAIR      45  35  68 SW9       29.78F
6HR MIN TEMP:  45; 6HR MAX TEMP:  51;


$$

INZ030>032-037>040-046>048-054>057-064-065-210700-
CENTRAL INDIANA

CITY           SKY/WX    TMP DP  RH WIND       PRES   REMARKS
CP ATTERBURY + LGT RAIN  45  36  70 W10G16    29.81F
FISHERS *+     FAIR      43  37  81 SW8       29.75S
FRANKFORT +    FAIR      41  37  84 S10       29.74S
6HR MIN TEMP:  40; 6HR MAX TEMP:  47;

GREENWOOD *+   FAIR      45  28  53 W12       29.78S
INDIANAPOLIS   FAIR      44  32  62 SW13      29.75R
6HR MIN TEMP:  44; 6HR MAX TEMP:  49; 6HR PCP: TRACE;

-EAGLE CREEK   FAIR      45  34  65 SW7       29.75S
6HR MIN TEMP:  45; 6HR MAX TEMP:  49;

KOKOMO *+      FAIR      43  36  75 SW8       29.71F
6HR MIN TEMP:  41; 6HR MAX TEMP:  46; 6HR PCP:  0.01;

MARION +       CLOUDY    42  36  78 NW16G22   29.74R
MT COMFORT *+  FAIR      45  28  53 SW12      29.76S
SHELBYVILLE    MOCLDY    48  35  60 SW15      29.77S
6HR MIN TEMP:  47; 6HR MAX TEMP:  51;

ZIONSVILLE +   FAIR      43  34  70 SW7       29.75S
6HR MIN TEMP:  43; 6HR MAX TEMP:  49;


$$

INZ033-034-041-042-049-050-058-059-210700-
EAST CENTRAL INDIANA

CITY           SKY/WX    TMP DP  RH WIND       PRES   REMARKS
MUNCIE         FAIR      45  35  68 SW10      29.73S
6HR MIN TEMP:  45; 6HR MAX TEMP:  49; 6HR PCP: TRACE;


$$

INZ060-061-067>069-081>083-085>088-210700-
SOUTHWEST INDIANA

CITY           SKY/WX    TMP DP  RH WIND       PRES   REMARKS
EVANSVILLE     FAIR      46  38  73 SW5       29.88R
6HR MIN TEMP:  46; 6HR MAX TEMP:  56;

HUNTINGBURG *+ MOCLDY    45  36  70 SW9       29.86S
6HR MIN TEMP:  45; 6HR MAX TEMP:  54;

WASHINGTON +   FAIR      46  33  61 SW8       29.83S
6HR MIN TEMP:  45; 6HR MAX TEMP:  52;


$$

INZ062-063-066-070>080-084-089>092-210700-
SOUTH CENTRAL AND SOUTHEAST INDIANA

CITY           SKY/WX    TMP DP  RH WIND       PRES   REMARKS
BEDFORD +      FAIR      45  34  65 SW5       29.82S
BLOOMINGTON    FAIR      45  35  68 SW7       29.80S
6HR MIN TEMP:  45; 6HR MAX TEMP:  50;

MADISON *+     FAIR      45  34  65 SW7       29.85S
NORTH VERNON + FAIR      45  36  70 SW7       29.82S

$$



USA.gov is the U.S. government's official web portal to all federal, state and local government web resources and services.